TimeCST,TemperatureF,Dew PointF,Humidity,Sea Level PressureIn,VisibilityMPH,Wind Direction,Wind SpeedMPH,Gust SpeedMPH,PrecipitationIn,Events,Conditions,WindDirDegrees,DateUTC
12:15 AM,59.0,59.0,100,30.07,5.0,ESE,8.1,-,0.04,Rain,Rain,120,2013-11-05 06:15:00
12:35 AM,59.0,59.0,100,30.07,4.0,SE,9.2,-,0.09,Rain,Rain,130,2013-11-05 06:35:00
12:55 AM,59.0,59.0,100,30.06,5.0,SE,9.2,18.4,0.13,Rain,Rain,130,2013-11-05 06:55:00
1:15 AM,59.0,59.0,100,30.06,5.0,SE,6.9,-,0.03,Rain,Rain,130,2013-11-05 07:15:00
1:35 AM,59.0,59.0,100,30.07,5.0,SE,6.9,-,0.05,Rain,Rain,140,2013-11-05 07:35:00
1:55 AM,58.6,58.6,100,30.06,5.0,SE,6.9,-,0.09,Rain,Rain,140,2013-11-05 07:55:00
2:15 AM,58.8,58.8,100,30.05,5.0,SE,9.2,-,0.02,Rain,Light Rain,130,2013-11-05 08:15:00
2:35 AM,59.0,59.0,100,30.04,7.0,ESE,9.2,-,0.04,Rain,Light Rain,120,2013-11-05 08:35:00
2:55 AM,59.0,59.0,100,30.03,7.0,ESE,5.8,-,0.06,Rain,Light Rain,120,2013-11-05 08:55:00
3:15 AM,59.0,59.0,100,30.03,10.0,SE,8.1,-,N/A,,Overcast,130,2013-11-05 09:15:00
3:35 AM,59.2,59.2,100,30.02,10.0,SE,8.1,-,N/A,,Overcast,130,2013-11-05 09:35:00
3:55 AM,59.4,59.2,99,30.03,10.0,SE,5.8,-,N/A,,Overcast,130,2013-11-05 09:55:00
4:15 AM,59.9,59.5,99,30.02,10.0,SE,6.9,-,N/A,,Overcast,130,2013-11-05 10:15:00
4:35 AM,59.9,59.9,100,30.02,10.0,SE,5.8,-,N/A,,Overcast,130,2013-11-05 10:35:00
4:55 AM,60.3,60.1,99,30.02,10.0,SE,6.9,-,N/A,,Overcast,140,2013-11-05 10:55:00
5:15 AM,60.4,60.1,99,30.02,10.0,SE,9.2,-,N/A,,Overcast,140,2013-11-05 11:15:00
5:35 AM,60.8,60.3,98,30.02,10.0,SE,8.1,-,N/A,,Overcast,130,2013-11-05 11:35:00
6:55 AM,60.8,59.0,94,30.02,5.0,ESE,9.2,-,N/A,,Overcast,120,2013-11-05 12:55:00
7:55 AM,60.8,60.8,100,30.03,5.0,SE,9.2,-,N/A,,Overcast,130,2013-11-05 13:55:00
8:55 AM,60.8,60.8,100,30.04,4.0,SE,9.2,-,N/A,,Overcast,130,2013-11-05 14:55:00
9:55 AM,60.8,60.8,100,30.03,3.0,East,6.9,-,N/A,Rain,Light Rain,100,2013-11-05 15:55:00
10:55 AM,62.6,62.6,100,30.02,10.5,SE,9.2,-,N/A,,Overcast,140,2013-11-05 16:55:00
11:55 AM,62.6,62.6,100,30.00,5.0,SSE,10.4,-,N/A,,Overcast,150,2013-11-05 17:55:00
12:55 PM,64.4,64.4,100,29.97,3.0,SSE,9.2,-,N/A,,Overcast,160,2013-11-05 18:55:00
1:55 PM,68.0,66.2,94,29.94,10.0,SE,10.4,-,N/A,,Overcast,140,2013-11-05 19:55:00
2:55 PM,66.2,64.4,94,29.94,10.0,SSE,6.9,-,N/A,Rain,Light Rain,160,2013-11-05 20:55:00
3:55 PM,66.2,64.4,94,29.94,7.0,SSE,12.7,17.3,N/A,Rain,Light Rain,150,2013-11-05 21:55:00
4:55 PM,66.2,66.2,100,29.94,5.0,North,-9999.0,-,N/A,Rain,Rain,0,2013-11-05 22:55:00
5:55 PM,66.2,64.4,94,29.95,5.0,North,-9999.0,-,N/A,,Mist,0,2013-11-05 23:55:00
6:55 PM,66.2,64.4,94,29.95,5.0,North,-9999.0,-,N/A,,Mist,0,2013-11-06 00:55:00
7:55 PM,66.2,64.4,94,29.95,5.0,North,-9999.0,-,N/A,Rain,Rain,0,2013-11-06 01:55:00
8:55 PM,66.2,66.2,100,29.94,3.0,North,-9999.0,-,N/A,Rain,Heavy Rain,0,2013-11-06 02:55:00
9:55 PM,66.2,66.2,100,29.95,3.0,North,-9999.0,-,N/A,Rain,Heavy Rain,0,2013-11-06 03:55:00
10:35 PM,66.7,66.2,98,29.95,10.0,South,6.9,-,0.01,,Overcast,180,2013-11-06 04:35:00
10:55 PM,67.1,66.6,98,29.95,10.0,South,8.1,-,0.01,,Overcast,190,2013-11-06 04:55:00
11:15 PM,67.6,67.1,98,29.95,10.0,South,8.1,-,N/A,,Overcast,190,2013-11-06 05:15:00
11:35 PM,68.0,67.1,97,29.94,10.0,South,10.4,17.3,N/A,,Overcast,180,2013-11-06 05:35:00
11:55 PM,68.0,67.1,97,29.94,10.0,SSW,10.4,-,N/A,,Overcast,200,2013-11-06 05:55:00